Regional Weather Roundup
Issued by NWS Green Bay, WI

Current Version | Previous Version | Text Only | Print | Product List | Glossary On
Versions: 1 2 3 4 5 6 7 8 9 10 11 12 13 14 15 16 17 18 19 20 21 22 23 24 25 26 27 28 29 30 31 32 33 34 35 36 37 38 39 40 41 42 43 44 45 46 47 48 49 50
000
ASUS43 KGRB 230100
RWRGRB

NORTH-CENTRAL AND NORTHEAST WISCONSIN REGIONAL WEATHER ROUNDUP
NATIONAL WEATHER SERVICE GREEN BAY WI
700 PM CST THU FEB 22 2018

WIZ005-009-010>012-018-019-230200-
NORTH CENTRAL WISCONSIN

CITY           SKY/WX    TMP DP  RH WIND       PRES   REMARKS
IRONWOOD       CLOUDY    29  12  49 NE3       30.43F
MANITOWISH WTR NOT AVBL
ARBOR VITAE    NOT AVBL
EAGLE RIVER    MOCLDY    28  10  46 SE6       30.44S
LAND O LAKES   MOCLDY    29  11  46 SE6       30.45S
RHINELANDER    CLOUDY    28  15  58 E9        30.44F
PHILLIPS       CLOUDY    28  12  50 E5        30.40F
ANTIGO         NOT AVBL
TOMAHAWK       NOT AVBL
MERRILL        CLOUDY    28  13  53 E8        30.44F
$$

WIZ013-073-230200-
NORTHEAST WISCONSIN

CITY           SKY/WX    TMP DP  RH WIND       PRES   REMARKS
IRON MOUNTAIN  CLOUDY    27  18  69 E3        30.47F
MARINETTE      CLOUDY    28  24  85 E8        30.53F
$$

WIZ017-030-035>037-045-230200-
CENTRAL WISCONSIN

CITY           SKY/WX    TMP DP  RH WIND       PRES   REMARKS
MEDFORD        NOT AVBL
WAUSAU         CLOUDY    27  16  63 E13       30.42F
MOSINEE        CLOUDY    27  19  74 E12       30.44F
MARSHFIELD     CLOUDY    26  20  77 NE15      30.38F
WISC RAPIDS    CLOUDY    29  18  63 E10       30.42F
STEVENS POINT  NOT AVBL
WAUPACA        CLOUDY    32  21  64 NE6       30.46F
SHAWANO        CLOUDY    31  20  65 E7        30.49F
CLINTONVILLE   CLOUDY    30  19  63 E7        30.48F
WAUTOMA        CLOUDY    30  22  72 NE10      30.42F
$$

WIZ038-039-048-051-230200-
FOX VALLEY

CITY           SKY/WX    TMP DP  RH WIND       PRES   REMARKS
NWS GREEN BAY  CLOUDY    30  23  75 NE8       30.48F
APPLETON       CLOUDY    30  19  64 NE14      30.44F
OSHKOSH        CLOUDY    30  23  75 E9        30.45F
FOND DU LAC    CLOUDY    32  23  69 E7        30.45F
$$

WIZ022-050-052-230200-
EAST CENTRAL WISCONSIN

CITY           SKY/WX    TMP DP  RH WIND       PRES   REMARKS
EPHRAIM        NOT AVBL
WASHINGTON ISL NOT AVBL
STURGEON BAY   CLOUDY    30  25  81 NE5       30.52F
MANITOWOC      CLOUDY    32  27  81 NE6       30.49
SHEBOYGAN      CLOUDY    32  28  85 NE12      30.46F
$$

LMZ563-521-522-541>543-230200-
LAKESHORE

STATION/POSITION TIME  TEMP    WIND        PRES    VSBY  WAVE
                       AIR SEA DIR/SP/G                  HT/PER
                 (UTC) (F)     (DEG/KT/KT) (MB)    (MI)  (FT/S)
SHEBOYGAN LKSHOR 0000   33      40/ 14/ 16 1032.8F
KEWAUNEE LKSHORE 0030   32      40/  7/ 12 1031.9F
NORTHPORT PIER   0040   31                 1033.5F
SISTER BAY LKSHO 0020   30      70/  8/ 11   N/A
MENOMINEE LKSHOR 0030   26      10/ 12/ 13 1032.9F
$$



USA.gov is the U.S. government's official web portal to all federal, state and local government web resources and services.